Cairns, Australia

8:18 AM AEST on October 20, 2017 (GMT +1000)
Cairns International

Weather History for YBCS - January, 2015

Change the Weather History Date:

Thursday, January 22, 2015

  Actual Average Record
Temperature  
Mean Temperature 84 °F -  
Max Temperature 89 °F 88 °F 93 °F (2008)
Min Temperature 78 °F 74 °F 73 °F (1997)
Cooling Degree Days 18    
Growing Degree Days 34 (Base 50)    
Moisture  
Dew Point 76 °F    
Average Humidity 77    
Maximum Humidity 89    
Minimum Humidity 60    
Precipitation  
Precipitation 0.00 in 0.55 in - ()
Sea Level Pressure  
Sea Level Pressure 29.61 in    
Wind  
Wind Speed 7 mph ()    
Max Wind Speed 16 mph    
Max Gust Speed -    
Visibility 6.5 miles    
Events Rain , Thunderstorm    
Averages and records for this station are not official NWS values.
T = Trace of Precipitation, MM = Missing Value Source: Averaged Metar Reports

Daily Weather History Graph

Daily Weather History Graph

Search for Another Location

Airport or City:

Trip Planner

Search our weather history database for the weather conditions in past years. The results will help you decide how hot, cold, wet, or windy it might be!

Date:

Astronomy

Jan. 22, 2015 Rise Set
Actual Time 5:59 AM AEST 6:57 PM AEST
Civil Twilight 5:36 AM AEST 7:20 PM AEST
Nautical Twilight 5:08 AM AEST 7:47 PM AEST
Astronomical Twilight 4:40 AM AEST 8:15 PM AEST
Moon 7:26 AM AEST (1/22) 8:18 PM AEST (1/22)
Length of Visible Light 13h 44m
Length of Day
12h 57m
Waxing Crescent, 3% of the Moon is Illuminated
Jan 22
Waxing Crescent
Jan 27
First Quarter
Feb 4
Full
Feb 12
Last Quarter
Feb 19
New

Hourly Weather History & Observations

Time (AEST) Temp. Heat Index Dew Point Humidity Pressure Visibility Wind Dir Wind Speed Gust Speed Precip Events Conditions
12:00 AM 82 °F - 78 °F 83% 29.66 in - Calm Calm - -   Overcast
12:00 AM 82.4 °F 90.9 °F 77.0 °F 84% 29.65 in 6.2 mi Calm Calm - N/A   Partly Cloudy
12:30 AM 82.4 °F 88.2 °F 73.4 °F 74% 29.65 in 6.2 mi South 11.5 mph - N/A   Partly Cloudy
1:00 AM 82 °F - 73 °F 69% 29.64 in - South 11.5 mph - -  
1:00 AM 82.4 °F 88.2 °F 73.4 °F 74% 29.62 in 6.2 mi South 11.5 mph - N/A   Partly Cloudy
1:30 AM 82.4 °F 88.2 °F 73.4 °F 74% 29.62 in 6.2 mi South 13.8 mph - N/A   Partly Cloudy
2:00 AM 80.6 °F 85.4 °F 73.4 °F 79% 29.62 in 6.2 mi SSE 11.5 mph - N/A   Partly Cloudy
2:30 AM 80.6 °F 85.4 °F 73.4 °F 79% 29.62 in 6.2 mi South 10.4 mph - N/A   Partly Cloudy
3:00 AM 81 °F - 74 °F 72% 29.62 in - South 9.2 mph - -   Overcast
3:00 AM 80.6 °F 85.4 °F 73.4 °F 79% 29.59 in 6.2 mi South 9.2 mph - N/A   Partly Cloudy
3:30 AM 80.6 °F 85.4 °F 73.4 °F 79% 29.59 in 6.2 mi South 10.4 mph - N/A   Partly Cloudy
4:00 AM 80 °F - 74 °F 76% 29.61 in - South 10.4 mph - -  
4:00 AM 80.6 °F 85.4 °F 73.4 °F 79% 29.59 in 6.2 mi South 10.4 mph - N/A   Mostly Cloudy
4:30 AM 78.8 °F - 73.4 °F 83% 29.59 in 6.2 mi SE 5.8 mph - N/A   Scattered Clouds
5:00 AM 78.8 °F - 75.2 °F 89% 29.59 in 6.2 mi East 1.2 mph - N/A   Scattered Clouds
5:30 AM 80.6 °F 86.2 °F 75.2 °F 84% 29.59 in 6.2 mi North 1.2 mph - N/A   Mostly Cloudy
6:00 AM 79 °F - 75 °F 83% 29.60 in - SE 8.1 mph - -  
6:00 AM 78.8 °F - 75.2 °F 89% 29.59 in 6.2 mi SE 8.1 mph - N/A   Mostly Cloudy
6:30 AM 80.6 °F 85.4 °F 73.4 °F 79% 29.62 in 6.2 mi SSE 5.8 mph - N/A   Overcast
7:00 AM 80 °F - 75 °F 81% 29.65 in - West 4.6 mph - -  
7:00 AM 80.6 °F 86.2 °F 75.2 °F 84% 29.62 in 6.2 mi West 4.6 mph - N/A   Overcast
7:30 AM 80.6 °F 86.2 °F 75.2 °F 84% 29.65 in 6.2 mi West 3.5 mph - N/A   Overcast
8:00 AM 82.4 °F 89.5 °F 75.2 °F 79% 29.65 in 6.2 mi ENE 2.3 mph - N/A   Overcast
8:30 AM 82.4 °F 89.5 °F 75.2 °F 79% 29.65 in 6.2 mi South 1.2 mph - N/A   Overcast
9:00 AM 84 °F - 76 °F 70% 29.67 in 16 mi North 2.3 mph - -   Partly Cloudy
9:00 AM 84.2 °F 92.3 °F 75.2 °F 74% 29.65 in 6.2 mi North 2.3 mph - N/A   Overcast
9:30 AM 84.2 °F 94.1 °F 77.0 °F 79% 29.65 in 6.2 mi NNE 8.1 mph - N/A   Overcast
10:00 AM 85 °F - 78 °F 73% 29.65 in - NE 4.6 mph - -  
10:00 AM 86.0 °F 96.9 °F 77.0 °F 74% 29.65 in 6.2 mi NE 4.6 mph - N/A   Overcast
10:30 AM 86.0 °F 96.9 °F 77.0 °F 74% 29.62 in 6.2 mi NNE 6.9 mph - N/A   Overcast
11:00 AM 86.0 °F 96.9 °F 77.0 °F 74% 29.62 in 6.2 mi NE 6.9 mph - N/A   Overcast
11:30 AM 86.0 °F 96.9 °F 77.0 °F 74% 29.62 in 6.2 mi North 16.1 mph - N/A   Overcast
12:00 PM 89 °F - 78 °F 62% 29.61 in - North 11.5 mph - -   Overcast
12:00 PM 87.8 °F 99.7 °F 77.0 °F 70% 29.59 in 6.2 mi North 11.5 mph - N/A   Mostly Cloudy
12:30 PM 87.8 °F 102.5 °F 78.8 °F 75% 29.59 in 6.2 mi North 15.0 mph - N/A   Partly Cloudy
1:00 PM 89 °F - 77 °F 60% 29.59 in - North 12.7 mph - -  
1:00 PM 89.6 °F 102.2 °F 77.0 °F 66% 29.56 in 6.2 mi North 12.7 mph - N/A   Partly Cloudy
1:30 PM 87.8 °F 102.5 °F 78.8 °F 75% 29.56 in 6.2 mi North 11.5 mph - N/A   Partly Cloudy
2:00 PM 87.8 °F 102.5 °F 78.8 °F 75% 29.56 in 6.2 mi NNE 11.5 mph - N/A   Mostly Cloudy
2:30 PM 89.6 °F 104.7 °F 78.8 °F 70% 29.56 in 6.2 mi North 10.4 mph - N/A   Mostly Cloudy
3:00 PM 88 °F - 76 °F 61% 29.56 in 19 mi North 11.5 mph - -   Partly Cloudy
3:00 PM 87.8 °F 99.7 °F 77.0 °F 70% 29.56 in 6.2 mi North 11.5 mph - N/A   Mostly Cloudy
3:30 PM 87.8 °F 102.5 °F 78.8 °F 75% 29.53 in 6.2 mi North 12.7 mph - N/A   Mostly Cloudy
4:00 PM 86 °F - 79 °F 74% 29.55 in - North 12.7 mph - -  
4:00 PM 86.0 °F 99.3 °F 78.8 °F 79% 29.53 in 6.2 mi North 12.7 mph - N/A   Mostly Cloudy
4:30 PM 86.0 °F 96.9 °F 77.0 °F 74% 29.53 in 6.2 mi NNW 9.2 mph - N/A   Mostly Cloudy
5:00 PM 86.0 °F 96.9 °F 77.0 °F 74% 29.53 in 6.2 mi North 10.4 mph - N/A   Partly Cloudy
5:30 PM 86.0 °F 96.9 °F 77.0 °F 74% 29.56 in 6.2 mi NNW 9.2 mph - N/A   Partly Cloudy
6:00 PM 85 °F - 77 °F 72% 29.57 in - North 9.2 mph - -   Overcast
6:00 PM 86.0 °F 96.9 °F 77.0 °F 74% 29.56 in 6.2 mi North 9.2 mph - N/A   Overcast
6:25 PM 84.2 °F 94.1 °F 77.0 °F 79% 29.56 in 3.7 mi NNW 10.4 mph - N/A Rain Light Rain Showers
6:30 PM 84.2 °F 94.1 °F 77.0 °F 79% 29.56 in 3.7 mi NNW 11.5 mph - N/A Rain Light Rain Showers
6:40 PM 84.2 °F 96.1 °F 78.8 °F 84% 29.56 in 6.2 mi North 11.5 mph - N/A   Overcast
7:00 PM 83 °F - 78 °F 79% 29.61 in - NW 10.4 mph - -  
7:00 PM 82.4 °F 90.9 °F 77.0 °F 84% 29.59 in 6.2 mi NW 10.4 mph - N/A Thunderstorm Partly Cloudy
7:30 PM 80.6 °F 86.2 °F 75.2 °F 84% 29.62 in 6.2 mi NNW 9.2 mph - N/A   Partly Cloudy
8:00 PM 80.6 °F 85.4 °F 73.4 °F 79% 29.62 in 6.2 mi WNW 5.8 mph - N/A   Scattered Clouds
8:30 PM 80.6 °F 85.4 °F 73.4 °F 79% 29.62 in 6.2 mi West 5.8 mph - N/A   Partly Cloudy
9:00 PM 80 °F - 75 °F 79% 29.65 in - West 5.8 mph - -   Overcast
9:00 PM 80.6 °F 86.2 °F 75.2 °F 84% 29.65 in 6.2 mi West 5.8 mph - N/A   Scattered Clouds
9:30 PM 80.6 °F 86.2 °F 75.2 °F 84% 29.65 in 6.2 mi West 5.8 mph - N/A   Scattered Clouds
10:00 PM 79 °F - 76 °F 86% 29.67 in - North 5.8 mph - -  
10:00 PM 78.8 °F - 75.2 °F 89% 29.65 in 6.2 mi North 5.8 mph - N/A   Scattered Clouds
10:30 PM 80.6 °F 86.2 °F 75.2 °F 84% 29.65 in 6.2 mi West 5.8 mph - N/A   Mostly Cloudy
11:00 PM 80.6 °F 86.2 °F 75.2 °F 84% 29.65 in 6.2 mi WNW 5.8 mph - N/A   Mostly Cloudy
11:30 PM 80.6 °F 86.2 °F 75.2 °F 84% 29.65 in 6.2 mi WNW 5.8 mph - N/A   Mostly Cloudy